KF5WOE-13 Weather Reports


Display with metric or nautical units.
time (UTC)temp
F
wind
direction
speed
MPH
gust
MPH
rain 1hr
in
rain 24hr
in
rain mn
in
humidity
%
barometer
mb
20260904223849 140 139 7.0 10.0 0.00 0.00 0.00 1009.5
20260904223348 140 137 6.0 9.0 0.00 0.00 0.00 1009.5
20260904222844 140 191 2.0 5.0 0.00 0.00 0.00 1009.7
20260904222339 140 147 5.0 8.0 0.00 0.00 0.00 1009.5
20260904221839 140 126 0.0 1.0 0.00 0.00 0.00 1009.7
20260904221333 140 124 3.0 8.0 0.00 0.00 0.00 1009.7
20260904220829 140 139 10.0 11.0 0.00 0.00 0.00 1009.7
20260904220328 140 216 0.0 0.0 0.00 0.00 0.00 1009.9
20260904215823 140 192 0.0 0.0 0.00 0.00 0.00 1009.9
20260904215318 140 206 4.0 7.0 0.00 0.00 0.00 1009.9
20260904214815 140 227 0.0 0.0 0.00 0.00 0.00 1010.2
20260904214310 140 115 3.0 9.0 0.00 0.00 0.00 1010.3
20260904213808 140 175 5.0 7.0 0.00 0.00 0.00 1010.2
20260904213304 140 174 6.0 8.0 0.00 0.00 0.00 1010.1
20260904212800 140 154 4.0 7.0 0.00 0.00 0.00 1010.5
20260904212259 140 144 7.0 9.0 0.00 0.00 0.00 1010.2
20260904211754 140 124 1.0 5.0 0.00 0.00 0.00 1010.6
20260904211249 140 135 0.0 0.0 0.00 0.00 0.00 1010.7
20260904210745 140 147 0.0 0.0 0.00 0.00 0.00 1010.8
20260904210239 140 168 4.0 7.0 0.00 0.00 0.00 1010.7
20260904205735 140 171 10.0 11.0 0.00 0.00 0.00 1010.8
20260904205231 140 123 4.0 9.0 0.00 0.00 0.00 1010.8
20260904204728 140 169 8.0 9.0 0.00 0.00 0.00 1011.0
20260904204223 140 184 7.0 8.0 0.00 0.00 0.00 1011.0
20260904203720 140 129 3.0 6.0 0.00 0.00 0.00 1011.0
20260904203215 140 105 7.0 14.0 0.00 0.00 0.00 1011.0
20260904202711 140 142 7.0 9.0 0.00 0.00 0.00 1011.3
20260904202202 140 198 9.0 11.0 0.00 0.00 0.00 1011.6
20260904201702 140 168 7.0 9.0 0.00 0.00 0.00 1011.3
20260904201150 140 198 3.0 5.0 0.00 0.00 0.00 1011.5
20260904200650 140 183 12.0 13.0 0.00 0.00 0.00 1011.8
20260904200139 140 124 12.0 15.0 0.00 0.00 0.00 1011.8
20260904195638 140 175 7.0 10.0 0.00 0.00 0.00 1011.7
20260904195132 140 131 8.0 9.0 0.00 0.00 0.00 1011.9
20260904194632 140 193 9.0 13.0 0.00 0.00 0.00 1012.0
20260904194126 140 138 4.0 8.0 0.00 0.00 0.00 1012.0
20260904193621 140 189 7.0 10.0 0.00 0.00 0.00 1012.0
20260904193118 140 194 8.0 11.0 0.00 0.00 0.00 1012.1
20260904192617 140 105 9.0 10.0 0.00 0.00 0.00 1012.2
20260904192114 140 160 12.0 15.0 0.00 0.00 0.00 1012.2
20260904191610 140 162 10.0 14.0 0.00 0.00 0.00 1012.2
20260904191106 140 196 10.0 13.0 0.00 0.00 0.00 1012.3
20260904190601 140 146 2.0 5.0 0.00 0.00 0.00 1012.4
20260904190058 140 137 15.0 16.0 0.00 0.00 0.00 1012.3
20260904185554 140 142 9.0 10.0 0.00 0.00 0.00 1012.3
20260904185054 140 133 4.0 6.0 0.00 0.00 0.00 1012.5
20260904184548 140 173 6.0 9.0 0.00 0.00 0.00 1012.4
20260904184043 140 134 0.0 0.0 0.00 0.00 0.00 1012.5
20260904183538 140 93 9.0 10.0 0.00 0.00 0.00 1012.7
20260904183033 140 130 9.0 10.0 0.00 0.00 0.00 1012.9
20260904182529 140 130 8.0 10.0 0.00 0.00 0.00 1012.8
20260904182028 140 143 11.0 13.0 0.00 0.00 0.00 1012.9
20260904181525 140 125 0.0 1.0 0.00 0.00 0.00 1012.9
20260904181024 140 137 10.0 14.0 0.00 0.00 0.00 1012.9
20260904180519 140 154 7.0 9.0 0.00 0.00 0.00 1013.0
20260904180014 140 147 5.0 6.0 0.00 0.00 0.00 1012.9
20260904175508 140 131 11.0 13.0 0.00 0.00 0.00 1013.2
20260904175002 140 173 6.0 7.0 0.00 0.00 0.00 1013.3
20260904174456 140 142 1.0 5.0 0.00 0.00 0.00 1013.4
20260904173954 140 135 6.0 8.0 0.00 0.00 0.00 1013.3
20260904173453 140 172 0.0 0.0 0.00 0.00 0.00 1013.5
20260904172949 140 121 7.0 9.0 0.00 0.00 0.00 1013.4
20260904172443 140 147 6.0 8.0 0.00 0.00 0.00 1013.5
20260904171938 140 93 3.0 7.0 0.00 0.00 0.00 1013.5
20260904171434 140 193 7.0 8.0 0.00 0.00 0.00 1013.3
20260904170930 140 150 6.0 7.0 0.00 0.00 0.00 1013.7
20260904170425 140 158 4.0 9.0 0.00 0.00 0.00 1013.6
20260904165920 140 138 7.0 9.0 0.00 0.00 0.00 1013.8
20260904165419 140 182 6.0 8.0 0.00 0.00 0.00 1013.7
20260904164919 140 120 11.0 13.0 0.00 0.00 0.00 1013.7
20260904164419 140 177 8.0 9.0 0.00 0.00 0.00 1013.7
20260904163915 140 166 9.0 10.0 0.00 0.00 0.00 1013.8
20260904163414 140 145 10.0 13.0 0.00 0.00 0.00 1013.8
20260904162914 140 106 3.0 5.0 0.00 0.00 0.00 1013.8
20260904162409 140 114 6.0 7.0 0.00 0.00 0.00 1013.9
20260904161859 140 152 7.0 8.0 0.00 0.00 0.00 1013.9
20260904161354 140 130 7.0 8.0 0.00 0.00 0.00 1014.0
20260904160849 140 173 9.0 11.0 0.00 0.00 0.00 1014.0
20260904160344 140 186 11.0 16.0 0.00 0.00 0.00 1013.7
20260904155840 140 165 11.0 14.0 0.00 0.00 0.00 1013.5
20260904155334 140 194 6.0 8.0 0.00 0.00 0.00 1013.9
20260904154833 140 173 7.0 8.0 0.00 0.00 0.00 1013.7
20260904154332 140 172 6.0 8.0 0.00 0.00 0.00 1013.6
20260904153829 140 167 5.0 7.0 0.00 0.00 0.00 1014.1
20260904153324 140 133 6.0 7.0 0.00 0.00 0.00 1013.9
20260904152821 140 150 8.0 9.0 0.00 0.00 0.00 1014.0
20260904152320 140 131 7.0 8.0 0.00 0.00 0.00 1014.0
20260904151816 140 158 8.0 10.0 0.00 0.00 0.00 1013.8
20260904151315 140 203 6.0 8.0 0.00 0.00 0.00 1013.7
20260904150811 140 173 8.0 9.0 0.00 0.00 0.00 1013.9
20260904150306 140 185 6.0 7.0 0.00 0.00 0.00 1013.6
20260904145804 140 172 8.0 10.0 0.00 0.00 0.00 1013.7
20260904145300 140 136 6.0 8.0 0.00 0.00 0.00 1013.8
20260904144755 140 131 0.0 0.0 0.00 0.00 0.00 1013.7
20260904144251 140 132 0.0 0.0 0.00 0.00 0.00 1013.8
20260904143746 140 160 7.0 9.0 0.00 0.00 0.00 1013.9
20260904143243 140 146 5.0 6.0 0.00 0.00 0.00 1013.7
20260904142739 140 188 4.0 5.0 0.00 0.00 0.00 1013.8
20260904142235 140 196 0.0 0.0 0.00 0.00 0.00 1014.0
20260904141735 140 177 0.0 0.0 0.00 0.00 0.00 1013.9
20260904141230 140 105 0.0 0.0 0.00 0.00 0.00 1013.9
20260904140726 140 153 0.0 0.0 0.00 0.00 0.00 1014.1
20260904140221 140 160 0.0 0.0 0.00 0.00 0.00 1014.0
20260904135719 140 182 0.0 0.0 0.00 0.00 0.00 1014.2
20260904135215 140 194 0.0 0.0 0.00 0.00 0.00 1014.1
20260904134711 140 154 3.0 3.0 0.00 0.00 0.00 1013.9
20260904134210 140 181 2.0 2.0 0.00 0.00 0.00 1014.2
20260904133705 140 162 3.0 5.0 0.00 0.00 0.00 1013.8
20260904133202 140 195 5.0 6.0 0.00 0.00 0.00 1013.6
20260904132700 140 152 4.0 6.0 0.00 0.00 0.00 1013.6
20260904132156 140 133 0.0 0.0 0.00 0.00 0.00 1013.5
20260904131655 140 182 0.0 0.0 0.00 0.00 0.00 1013.7
20260904131151 140 136 0.0 0.0 0.00 0.00 0.00 1013.5
20260904130645 140 232 0.0 0.0 0.00 0.00 0.00 1013.6
20260904130144 140 189 0.0 0.0 0.00 0.00 0.00 1013.8
20260904125641 140 170 0.0 0.0 0.00 0.00 0.00 1013.5
20260904125137 140 183 0.0 0.0 0.00 0.00 0.00 1013.5
20260904124637 140 163 0.0 0.0 0.00 0.00 0.00 1013.4
20260904124133 140 162 0.0 0.0 0.00 0.00 0.00 1013.3
20260904123632 140 190 0.0 0.0 0.00 0.00 0.00 1013.1
20260904123128 140 230 0.0 0.0 0.00 0.00 0.00 1012.9
20260904122623 140 199 0.0 0.0 0.00 0.00 0.00 1012.9
20260904122118 140 186 0.0 0.0 0.00 0.00 0.00 1012.9
20260904121613 140 223 0.0 0.0 0.00 0.00 0.00 1012.9
20260904121108 140 173 0.0 0.0 0.00 0.00 0.00 1012.7
20260904120559 140 184 0.0 0.0 0.00 0.00 0.00 1012.7
20260904120055 140 130 0.0 0.0 0.00 0.00 0.00 1012.6
20260904115550 140 179 2.0 2.0 0.00 0.00 0.00 1012.6
20260904115044 140 189 2.0 3.0 0.00 0.00 0.00 1012.6
20260904114539 140 182 3.0 3.0 0.00 0.00 0.00 1012.6
20260904114039 140 223 1.0 2.0 0.00 0.00 0.00 1012.5
20260904113533 140 165 2.0 2.0 0.00 0.00 0.00 1012.5
20260904113033 140 127 3.0 6.0 0.00 0.00 0.00 1012.2
20260904112528 140 190 5.0 7.0 0.00 0.00 0.00 1012.4
20260904112024 140 163 4.0 6.0 0.00 0.00 0.00 1012.4
20260904111520 140 205 6.0 8.0 0.00 0.00 0.00 1012.4
20260904111015 140 186 5.0 7.0 0.00 0.00 0.00 1012.5
20260904110514 140 169 7.0 10.0 0.00 0.00 0.00 1012.4
20260904110011 140 179 4.0 8.0 0.00 0.00 0.00 1012.5
20260904105509 140 145 5.0 8.0 0.00 0.00 0.00 1012.3
20260904105005 140 206 6.0 8.0 0.00 0.00 0.00 1012.4
20260904104454 140 179 5.0 7.0 0.00 0.00 0.00 1012.2
20260904103950 140 160 5.0 6.0 0.00 0.00 0.00 1012.4
20260904103446 140 199 5.0 6.0 0.00 0.00 0.00 1012.1
20260904102943 140 145 9.0 9.0 0.00 0.00 0.00 1011.8
20260904102437 140 167 7.0 11.0 0.00 0.00 0.00 1011.8
20260904101933 140 157 7.0 13.0 0.00 0.00 0.00 1012.0
20260904101429 140 143 6.0 7.0 0.00 0.00 0.00 1012.4
20260904100919 140 179 5.0 7.0 0.00 0.00 0.00 1012.0
20260904100415 140 165 7.0 8.0 0.00 0.00 0.00 1012.2
20260904095909 140 204 2.0 3.0 0.00 0.00 0.00 1011.9
20260904095404 140 154 5.0 6.0 0.00 0.00 0.00 1011.8
20260904094859 140 159 4.0 6.0 0.00 0.00 0.00 1012.0
20260904094354 140 188 2.0 3.0 0.00 0.00 0.00 1012.2
20260904093850 140 182 4.0 6.0 0.00 0.00 0.00 1012.2
20260904093349 140 153 4.0 5.0 0.00 0.00 0.00 1012.2
20260904092845 140 196 4.0 5.0 0.00 0.00 0.00 1012.0
20260904092342 140 188 5.0 7.0 0.00 0.00 0.00 1012.1
20260904091837 140 145 0.0 0.0 0.00 0.00 0.00 1012.0
20260904091332 140 138 2.0 3.0 0.00 0.00 0.00 1012.0
20260904090827 140 172 0.0 0.0 0.00 0.00 0.00 1011.7
20260904090324 140 151 7.0 8.0 0.00 0.00 0.00 1011.7
20260904085818 140 134 5.0 6.0 0.00 0.00 0.00 1011.9
20260904085308 140 169 4.0 5.0 0.00 0.00 0.00 1011.9
20260904084808 140 138 5.0 6.0 0.00 0.00 0.00 1011.9
20260904084304 140 148 4.0 5.0 0.00 0.00 0.00 1011.9
20260904083800 140 141 7.0 9.0 0.00 0.00 0.00 1011.9
20260904083256 140 145 5.0 8.0 0.00 0.00 0.00 1011.9
20260904082751 140 145 9.0 13.0 0.00 0.00 0.00 1011.9
20260904082246 140 157 7.0 8.0 0.00 0.00 0.00 1011.9
20260904081741 140 157 7.0 8.0 0.00 0.00 0.00 1011.8
20260904081237 140 155 8.0 14.0 0.00 0.00 0.00 1011.8
20260904080732 140 79 1.0 2.0 0.00 0.00 0.00 1012.1
20260904080228 140 114 6.0 7.0 0.00 0.00 0.00 1012.0
20260904075725 140 93 5.0 6.0 0.00 0.00 0.00 1012.0
20260904075225 140 114 7.0 9.0 0.00 0.00 0.00 1011.9
20260904074724 140 127 6.0 7.0 0.00 0.00 0.00 1011.9
20260904074218 140 136 7.0 8.0 0.00 0.00 0.00 1011.9
20260904073714 140 129 5.0 6.0 0.00 0.00 0.00 1011.9
20260904073210 140 129 7.0 7.0 0.00 0.00 0.00 1012.1
20260904072705 140 113 7.0 9.0 0.00 0.00 0.00 1012.2
20260904072200 140 142 6.0 7.0 0.00 0.00 0.00 1012.1
20260904071656 140 123 6.0 8.0 0.00 0.00 0.00 1012.2
20260904071150 140 161 2.0 3.0 0.00 0.00 0.00 1011.9
20260904070649 140 101 7.0 11.0 0.00 0.00 0.00 1012.2
20260904070143 140 121 7.0 9.0 0.00 0.00 0.00 1011.9
20260904065638 140 159 5.0 6.0 0.00 0.00 0.00 1011.8
20260904065136 140 119 6.0 6.0 0.00 0.00 0.00 1012.2
20260904064630 140 103 5.0 9.0 0.00 0.00 0.00 1012.1
20260904064125 140 159 1.0 2.0 0.00 0.00 0.00 1012.3
20260904063621 140 150 4.0 6.0 0.00 0.00 0.00 1012.0
20260904063116 140 113 6.0 7.0 0.00 0.00 0.00 1012.2
20260904062613 140 130 7.0 9.0 0.00 0.00 0.00 1012.1
20260904062107 140 109 8.0 9.0 0.00 0.00 0.00 1012.3
20260904061603 140 93 6.0 7.0 0.00 0.00 0.00 1012.2
20260904061100 140 118 8.0 9.0 0.00 0.00 0.00 1011.8
20260904060555 140 109 5.0 7.0 0.00 0.00 0.00 1012.2
20260904060051 140 111 5.0 8.0 0.00 0.00 0.00 1012.1
20260904055546 140 123 5.0 7.0 0.00 0.00 0.00 1012.3
20260904055041 140 101 6.0 7.0 0.00 0.00 0.00 1012.2
20260904054537 140 90 7.0 8.0 0.00 0.00 0.00 1012.1
20260904054033 140 113 6.0 8.0 0.00 0.00 0.00 1012.2
20260904053532 140 115 7.0 8.0 0.00 0.00 0.00 1012.1
20260904053028 140 137 4.0 7.0 0.00 0.00 0.00 1011.9
20260904052524 140 119 6.0 7.0 0.00 0.00 0.00 1012.1
20260904052020 140 108 9.0 11.0 0.00 0.00 0.00 1011.9
20260904051516 140 163 6.0 8.0 0.00 0.00 0.00 1012.0
20260904051015 140 122 9.0 10.0 0.00 0.00 0.00 1012.1
20260904050512 140 111 11.0 14.0 0.00 0.00 0.00 1011.9
20260904050007 140 92 9.0 11.0 0.00 0.00 0.00 1011.8
20260904045502 140 127 5.0 6.0 0.00 0.00 0.00 1011.8
20260904044956 140 125 7.0 8.0 0.00 0.00 0.00 1012.0
20260904044453 140 124 9.0 9.0 0.00 0.00 0.00 1012.2
20260904043949 140 88 9.0 11.0 0.00 0.00 0.00 1012.0
20260904043445 140 128 8.0 10.0 0.00 0.00 0.00 1012.0
20260904042941 140 122 5.0 8.0 0.00 0.00 0.00 1012.0
20260904042436 140 112 7.0 8.0 0.00 0.00 0.00 1012.0
20260904041931 140 99 6.0 7.0 0.00 0.00 0.00 1011.8
20260904041427 140 109 5.0 7.0 0.00 0.00 0.00 1011.7
20260904040918 140 78 5.0 7.0 0.00 0.00 0.00 1011.8
20260904040418 140 114 5.0 6.0 0.00 0.00 0.00 1011.9
20260904035914 140 136 6.0 7.0 0.00 0.00 0.00 1011.8
20260904035409 140 116 6.0 9.0 0.00 0.00 0.00 1012.0
20260904034909 140 108 11.0 14.0 0.00 0.00 0.00 1011.9
20260904034404 140 103 9.0 10.0 0.00 0.00 0.00 1011.9
20260904033900 140 114 12.0 14.0 0.00 0.00 0.00 1011.8
20260904033356 140 106 7.0 8.0 0.00 0.00 0.00 1011.7
20260904032846 140 112 12.0 16.0 0.00 0.00 0.00 1011.8
20260904032347 140 124 10.0 13.0 0.00 0.00 0.00 1011.7
20260904031840 140 107 13.0 14.0 0.00 0.00 0.00 1011.6
20260904031336 140 119 12.0 14.0 0.00 0.00 0.00 1011.4
20260904030831 140 160 10.0 11.0 0.00 0.00 0.00 1011.3
20260904030327 140 134 8.0 9.0 0.00 0.00 0.00 1011.3
20260904025822 140 122 10.0 13.0 0.00 0.00 0.00 1011.1
20260904025318 140 99 6.0 8.0 0.00 0.00 0.00 1011.1
20260904024813 140 135 11.0 11.0 0.00 0.00 0.00 1011.3
20260904024308 140 125 6.0 7.0 0.00 0.00 0.00 1011.2
20260904023805 140 117 10.0 14.0 0.00 0.00 0.00 1010.7
20260904023300 140 110 7.0 10.0 0.00 0.00 0.00 1011.0
20260904022759 140 103 7.0 9.0 0.00 0.00 0.00 1011.0
20260904022256 140 114 15.0 16.0 0.00 0.00 0.00 1011.0
20260904021752 140 112 7.0 9.0 0.00 0.00 0.00 1010.6
20260904021247 140 115 10.0 14.0 0.00 0.00 0.00 1010.7
20260904020743 140 110 8.0 10.0 0.00 0.00 0.00 1010.1
20260904020243 140 124 5.0 7.0 0.00 0.00 0.00 1010.3
20260904015741 140 120 13.0 18.0 0.00 0.00 0.00 1010.5
20260904015237 140 119 8.0 10.0 0.00 0.00 0.00 1010.0
20260904014735 140 114 9.0 13.0 0.00 0.00 0.00 1010.1
20260904014230 140 101 12.0 14.0 0.00 0.00 0.00 1010.2
20260904013727 140 89 12.0 16.0 0.00 0.00 0.00 1010.2
20260904013222 140 134 5.0 8.0 0.00 0.00 0.00 1010.1
20260904012718 140 101 11.0 15.0 0.00 0.00 0.00 1009.9
20260904012217 140 141 10.0 15.0 0.00 0.00 0.00 1009.5
20260904011716 140 108 11.0 15.0 0.00 0.00 0.00 1009.6
20260904011212 140 125 7.0 10.0 0.00 0.00 0.00 1009.9
20260904010707 140 142 14.0 18.0 0.00 0.00 0.00 1009.6
20260904010204 140 103 13.0 15.0 0.00 0.00 0.00 1009.6
20260904005659 140 125 11.0 15.0 0.00 0.00 0.00 1009.4
20260904005155 140 111 10.0 11.0 0.00 0.00 0.00 1009.5
20260904004649 140 118 13.0 16.0 0.00 0.00 0.00 1009.2
20260904004143 140 139 11.0 14.0 0.00 0.00 0.00 1009.4
20260904003639 140 121 11.0 13.0 0.00 0.00 0.00 1009.4
20260904003136 140 108 11.0 14.0 0.00 0.00 0.00 1009.3
20260904002631 140 109 11.0 14.0 0.00 0.00 0.00 1009.1
20260904002126 140 110 12.0 16.0 0.00 0.00 0.00 1009.2
20260904001621 140 152 7.0 9.0 0.00 0.00 0.00 1009.1
20260904001119 140 118 14.0 18.0 0.00 0.00 0.00 1009.1
20260904000615 140 135 14.0 17.0 0.00 0.00 0.00 1009.2
20260904000111 140 112 11.0 13.0 0.00 0.00 0.00 1009.2
20260903235610 140 111 11.0 13.0 0.00 0.00 0.00 1009.0
20260903235107 140 98 8.0 11.0 0.00 0.00 0.00 1008.9
20260903234601 140 123 9.0 9.0 0.00 0.00 0.00 1009.1
20260903234057 140 105 12.0 15.0 0.00 0.00 0.00 1008.9
20260903233553 140 95 16.0 20.0 0.00 0.00 0.00 1009.0
20260903233048 140 148 13.0 15.0 0.00 0.00 0.00 1008.9
20260903232544 140 93 10.0 11.0 0.00 0.00 0.00 1008.9
20260903232039 140 96 11.0 14.0 0.00 0.00 0.00 1008.6
20260903231533 140 120 12.0 16.0 0.00 0.00 0.00 1008.7
20260903231027 140 114 12.0 14.0 0.00 0.00 0.00 1008.7
20260903230524 140 85 12.0 14.0 0.00 0.00 0.00 1008.7
20260903230022 140 140 8.0 11.0 0.00 0.00 0.00 1008.7
20260903225520 140 144 7.0 9.0 0.00 0.00 0.00 1008.5
20260903225016 140 87 7.0 10.0 0.00 0.00 0.00 1008.7
20260903224512 140 116 6.0 9.0 0.00 0.00 0.00 1008.6